Weather History for Novato, CA

Change the Weather History Date:

Monday, June 10, 2013

  Actual Average (KAPC) Record (KAPC)
Temperature  
Mean Temperature 58 °F 64 °F  
Max Temperature 64 °F 78 °F 94 °F (2008)
Min Temperature 53 °F 49 °F 45 °F (2001)
Degree Days  
Heating Degree Days 6    
Month to date heating degree days  
Since 1 June heating degree days  
Since 1 July heating degree days  
Cooling Degree Days 0    
Month to date cooling degree days  
Year to date cooling degree days  
Since 1 June cooling degree days  
Growing Degree Days 8 (Base 50)    
Moisture  
Dew Point 54 °F    
Average Humidity 84    
Maximum Humidity 100    
Minimum Humidity 68    
Precipitation  
Precipitation 0.00 in - 0.25 in (1957)
Month to date precipitation  
Year to date precipitation  
Since 1 July precipitation  
Sea Level Pressure  
Sea Level Pressure 29.92 in    
Wind  
Wind Speed 7 mph (WSW)    
Max Wind Speed 16 mph    
Max Gust Speed 18 mph    
Visibility 10 miles    
Events      
T = Trace of Precipitation, MM = Missing Value Source: NWS Daily Summary

Daily Weather History Graph

Daily Weather History Graph

Search for Another Location

Airport:

Trip Planner

Search our weather history database for the weather conditions in past years. The results will help you decide how hot, cold, wet, or windy it might be!

Date:

Astronomy

Jun. 10, 2013 Rise Set
Actual Time 5:46 AM PDT 8:32 PM PDT
Civil Twilight 5:15 AM PDT 9:04 PM PDT
Nautical Twilight 4:36 AM PDT 9:43 PM PDT
Astronomical Twilight 3:51 AM PDT 10:28 PM PDT
Moon 7:38 AM PDT (6/10) 10:04 PM PDT (6/10)
Length of Visible Light 15h 49m
Length of Day
14h 46m
Waxing Crescent, 4% of the Moon is Illuminated
Jun 10
Waxing Crescent
Jun 16
First Quarter
Jun 23
Full
Jun 29
Last Quarter
Jul 8
New

Hourly Weather History & Observations

Time (PDT) Temp. Dew Point Humidity Pressure Visibility Wind Dir Wind Speed Gust Speed Precip Events Conditions
12:15 AM 57.2 °F 55.4 °F 94% 29.89 in 10.0 mi WSW 6.9 mph - N/A   Unknown
12:35 AM 57.2 °F 55.4 °F 94% 29.90 in 10.0 mi SSW 4.6 mph - N/A   Unknown
12:55 AM 57.2 °F 55.4 °F 94% 29.91 in 10.0 mi Calm Calm - N/A   Unknown
1:15 AM 57.2 °F 55.4 °F 94% 29.89 in 10.0 mi WSW 4.6 mph - N/A   Unknown
1:35 AM 57.2 °F 55.4 °F 94% 29.85 in 10.0 mi WNW 10.4 mph - N/A   Unknown
1:55 AM 57.2 °F 53.6 °F 88% 29.84 in 10.0 mi East 5.8 mph - N/A   Clear
2:15 AM 57.2 °F 55.4 °F 94% 29.87 in 10.0 mi South 8.1 mph - N/A   Mostly Cloudy
2:35 AM 57.2 °F 55.4 °F 94% 29.87 in 10.0 mi West 5.8 mph - N/A   Overcast
2:55 AM 57.2 °F 55.4 °F 94% 29.87 in 10.0 mi SW 6.9 mph - N/A   Overcast
3:15 AM 57.2 °F 55.4 °F 94% 29.84 in 10.0 mi West 4.6 mph - N/A   Mostly Cloudy
3:35 AM 57.2 °F 55.4 °F 94% 29.84 in 10.0 mi North 3.5 mph - N/A   Mostly Cloudy
3:55 AM 57.2 °F 55.4 °F 94% 29.85 in 10.0 mi WNW 4.6 mph - N/A   Overcast
4:15 AM 57.2 °F 55.4 °F 94% 29.86 in 10.0 mi West 6.9 mph - N/A   Overcast
4:35 AM 57.2 °F 55.4 °F 94% 29.87 in 10.0 mi West 5.8 mph - N/A   Overcast
4:55 AM 57.2 °F 55.4 °F 94% 29.87 in 10.0 mi NW 6.9 mph - N/A   Overcast
5:15 AM 57.2 °F 55.4 °F 94% 29.87 in 10.0 mi SW 5.8 mph - N/A   Overcast
5:35 AM 57.2 °F 55.4 °F 94% 29.87 in 9.0 mi WSW 5.8 mph - N/A   Overcast
5:55 AM 57.2 °F 57.2 °F 100% 29.87 in 5.0 mi WSW 3.5 mph - N/A   Overcast
6:15 AM 57.2 °F 57.2 °F 100% 29.88 in 2.5 mi West 3.5 mph - N/A   Overcast
6:35 AM 55.4 °F 55.4 °F 100% 29.89 in 1.8 mi NNW 3.5 mph - N/A   Overcast
6:55 AM 55.4 °F 55.4 °F 100% 29.89 in 3.0 mi Calm Calm - N/A   Overcast
7:15 AM 55.4 °F 55.4 °F 100% 29.87 in 4.0 mi South 11.5 mph - N/A   Overcast
7:35 AM 57.2 °F 57.2 °F 100% 29.88 in 10.0 mi SW 11.5 mph - N/A   Partly Cloudy
7:55 AM 57.2 °F 57.2 °F 100% 29.89 in 10.0 mi SSW 9.2 mph - N/A   Clear
8:15 AM 57.2 °F 57.2 °F 100% 29.90 in 10.0 mi WSW 5.8 mph - N/A   Scattered Clouds
8:35 AM 59.0 °F 55.4 °F 88% 29.90 in 10.0 mi WSW 6.9 mph - N/A   Mostly Cloudy
8:55 AM 59.0 °F 55.4 °F 88% 29.90 in 10.0 mi WSW 6.9 mph - N/A   Overcast
9:15 AM 60.8 °F 55.4 °F 82% 29.90 in 10.0 mi SSW 9.2 mph - N/A   Overcast
9:35 AM 59.0 °F 55.4 °F 88% 29.90 in 10.0 mi WSW 10.4 mph - N/A   Overcast
9:55 AM 62.6 °F 55.4 °F 77% 29.91 in 10.0 mi WSW 10.4 mph - N/A   Scattered Clouds
10:15 AM 62.6 °F 55.4 °F 77% 29.92 in 10.0 mi WSW 9.2 mph - N/A   Mostly Cloudy
10:35 AM 62.6 °F 55.4 °F 77% 29.93 in 10.0 mi SW 8.1 mph - N/A   Overcast
10:55 AM 62.6 °F 55.4 °F 77% 29.94 in 10.0 mi SW 11.5 mph - N/A   Mostly Cloudy
11:15 AM 62.6 °F 55.4 °F 77% 29.95 in 10.0 mi SW 9.2 mph - N/A   Mostly Cloudy
11:35 AM 62.6 °F 55.4 °F 77% 29.95 in 10.0 mi SSW 12.7 mph 18.4 mph N/A   Overcast
11:55 AM 62.6 °F 53.6 °F 72% 29.94 in 10.0 mi SSW 16.1 mph - N/A   Overcast
12:15 PM 62.6 °F 53.6 °F 72% 29.95 in 10.0 mi SW 10.4 mph - N/A   Overcast
12:35 PM 62.6 °F 53.6 °F 72% 29.96 in 10.0 mi SW 9.2 mph - N/A   Overcast
12:55 PM 62.6 °F 53.6 °F 72% 29.96 in 10.0 mi SW 11.5 mph - N/A   Overcast
1:15 PM 62.6 °F 53.6 °F 72% 29.96 in 10.0 mi SW 10.4 mph - N/A   Mostly Cloudy
1:35 PM 62.6 °F 53.6 °F 72% 29.96 in 10.0 mi SW 10.4 mph - N/A   Mostly Cloudy
1:55 PM 62.6 °F 53.6 °F 72% 29.96 in 10.0 mi SW 11.5 mph - N/A   Overcast
2:15 PM 62.6 °F 53.6 °F 72% 29.97 in 10.0 mi WSW 6.9 mph - N/A   Overcast
2:35 PM 64.4 °F 53.6 °F 68% 29.97 in 10.0 mi SW 9.2 mph 16.1 mph N/A   Overcast
2:55 PM 62.6 °F 53.6 °F 72% 29.97 in 10.0 mi WSW 11.5 mph - N/A   Overcast
3:15 PM 62.6 °F 53.6 °F 72% 29.97 in 10.0 mi SSW 9.2 mph - N/A   Overcast
3:35 PM 62.6 °F 53.6 °F 72% 29.97 in 10.0 mi SW 8.1 mph - N/A   Overcast
3:55 PM 62.6 °F 53.6 °F 72% 29.96 in 10.0 mi SW 11.5 mph - N/A   Overcast
4:15 PM 62.6 °F 53.6 °F 72% 29.96 in 10.0 mi WSW 9.2 mph - N/A   Overcast
4:35 PM 62.6 °F 53.6 °F 72% 29.96 in 10.0 mi WSW 6.9 mph - N/A   Overcast
4:55 PM 64.4 °F 53.6 °F 68% 29.96 in 10.0 mi SW 8.1 mph - N/A   Overcast
5:15 PM 64.4 °F 53.6 °F 68% 29.95 in 10.0 mi WSW 8.1 mph - N/A   Overcast
5:35 PM 64.4 °F 53.6 °F 68% 29.95 in 10.0 mi WSW 8.1 mph - N/A   Mostly Cloudy
5:55 PM 62.6 °F 53.6 °F 72% 29.95 in 10.0 mi WSW 6.9 mph - N/A   Partly Cloudy
6:15 PM 64.4 °F 53.6 °F 68% 29.95 in 10.0 mi West 9.2 mph - N/A   Clear
6:35 PM 64.4 °F 53.6 °F 68% 29.95 in 10.0 mi WSW 9.2 mph - N/A   Clear
6:55 PM 62.6 °F 51.8 °F 68% 29.95 in 10.0 mi WSW 8.1 mph - N/A   Clear
7:15 PM 62.6 °F 51.8 °F 68% 29.95 in 10.0 mi WNW 4.6 mph - N/A   Partly Cloudy
7:35 PM 62.6 °F 53.6 °F 72% 29.95 in 10.0 mi WSW 8.1 mph - N/A   Scattered Clouds
7:55 PM 60.8 °F 53.6 °F 77% 29.95 in 10.0 mi WSW 6.9 mph - N/A   Mostly Cloudy
8:15 PM 60.8 °F 53.6 °F 77% 29.94 in 10.0 mi WSW 6.9 mph - N/A   Scattered Clouds
8:35 PM 59.0 °F 53.6 °F 82% 29.94 in 10.0 mi WSW 4.6 mph - N/A   Clear
8:55 PM 59.0 °F 53.6 °F 82% 29.95 in 10.0 mi West 3.5 mph - N/A   Clear
9:15 PM 57.2 °F 51.8 °F 82% 29.95 in 10.0 mi NNW 4.6 mph - N/A   Clear
9:35 PM 57.2 °F 51.8 °F 82% 29.95 in 10.0 mi Calm Calm - N/A   Clear
9:55 PM 55.4 °F 51.8 °F 88% 29.96 in 10.0 mi NNW 3.5 mph - N/A   Clear
10:15 PM 55.4 °F 51.8 °F 88% 29.97 in 10.0 mi Calm Calm - N/A   Clear
10:35 PM 53.6 °F 51.8 °F 94% 29.97 in 10.0 mi Calm Calm - N/A   Clear
10:55 PM 53.6 °F 51.8 °F 94% 29.97 in 10.0 mi Calm Calm - N/A   Clear
11:15 PM 55.4 °F 53.6 °F 94% 29.97 in 10.0 mi Calm Calm - N/A   Mostly Cloudy
11:35 PM 57.2 °F 53.6 °F 88% 29.97 in 10.0 mi Calm Calm - N/A   Overcast
11:55 PM 55.4 °F 53.6 °F 94% 29.96 in 10.0 mi Calm Calm - N/A   Overcast